Regional Weather Roundup
Issued by NWS Midland/Odessa, TX

Current Version | Previous Version | Text Only | Print | Product List | Glossary On
Versions: 1 2 3 4 5 6 7 8 9 10 11 12 13 14 15 16 17 18 19 20 21 22 23 24 25 26 27 28 29 30 31 32 33 34 35 36 37 38 39 40 41 42 43 44 45 46 47 48 49 50
014
ASUS44 KMAF 190901
RWRMAF
MIDLAND AREA WEATHER ROUNDUP
NATIONAL WEATHER SERVICE MIDLAND TX
300 AM CST SUN NOV 19 2017

...IN SOUTHWEST TEXAS AND SOUTHEAST NEW MEXICO...

CITY           SKY/WX    TMP DP  RH WIND       PRES   REMARKS
ALPINE         CLOUDY    32  14  47 NW3       30.40S
ANDREWS        FAIR      32  21  64 W3        30.36F
ARTESIA        CLOUDY    32  16  51 CALM      30.35F
BIG SPRING     CLOUDY    32  23  70 CALM      30.38S
CARLSBAD       CLOUDY    32  22  66 S10       30.34F WCI  24
DRYDEN           N/A     43  23  45 N8        30.34S WCI  38
FORT STOCKTON  CLEAR     38  20  48 S8        30.35F WCI  32
GUAD PASS      CLOUDY    37  12  35 NE25      30.33F WCI  25
HOBBS          CLEAR     27  18  69 CALM      30.35F
LAMESA         FAIR      30  21  69 N5        30.36S WCI  25
MARFA          CLOUDY    30  16  56 N9        30.35F WCI  22
MIDLAND AIRPK  CLOUDY    37  24  60 CALM      30.37S
MIDLAND INTL   CLOUDY    33  23  66 CALM      30.36S
ODESSA         CLOUDY    32  22  66 CALM      30.36S
PECOS          CLOUDY    30  19  62 CALM      30.37S
PRESIDIO       FAIR      51  18  26 NE6       30.32F
SEMINOLE       CLOUDY    33  18  55 CALM      30.36F
SNYDER         CLOUDY    39  18  42 CALM      30.35S
WINK           CLOUDY    29  20  69 NE8       30.34F WCI  21
$$
...OTHER STATIONS IN TEXAS...

CITY           SKY/WX    TMP DP  RH WIND       PRES   REMARKS
ABILENE        CLEAR     34  31  88 S6        30.34F WCI  29
AMARILLO       CLOUDY    28  16  60 SW10      30.32F WCI  19
AUSTIN         CLEAR     45  36  70 N10       30.31S WCI  40
BROWNSVILLE    MOCLDY    68  52  56 N17G26    30.15R
CORPUS CHRISTI CLEAR     57  39  51 N20G29    30.23R
DALLAS FTW     CLEAR     43  35  73 NW7       30.29S WCI  39
DEL RIO        PTCLDY    47  34  60 N6        30.34F
EL PASO        PTCLDY    46  22  38 SE3       30.30S
HOUSTON INT    CLEAR     52  35  52 N15       30.23S
LUBBOCK        CLOUDY    27  15  61 W3        30.34S
SAN ANGELO     CLEAR     37  29  72 W6        30.35S WCI  32
SAN ANTONIO    PTCLDY    51  32  48 N12       30.33R
WACO           CLEAR     43  35  73 NW7       30.32S WCI  39
WICHITA FALLS  CLEAR     33  25  72 NW5       30.28R WCI  29
$$
...OTHER LOCATIONS IN NEW MEXICO...

CITY           SKY/WX    TMP DP  RH WIND       PRES   REMARKS
ALAMOGORDO     CLOUDY    32  14  47 NE6       30.33S WCI  26
ALBUQUERQUE    CLOUDY    33   8  35 E3        30.36R
CANNON AFB     CLOUDY    32  12  43 W5        30.32F WCI  27
CLOVIS         CLOUDY    28  15  58 SW9       30.32F WCI  19
HOLLOMAN AFB   CLOUDY    35  14  42 N3        30.34F
ROSWELL        CLEAR     31  16  54 SW8       30.34F WCI  23
RUIDOSO        CLOUDY    28  18  64 NW6       30.35F WCI  22
SANTA FE       CLOUDY    23  10  57 N9        30.33S WCI  13
TRUTH OR CONSE PTCLDY    36   4  26 NW8       30.30F WCI  30
TUCUMCARI      CLOUDY    33  14  45 W8        30.28F WCI  26
$$




USA.gov is the U.S. government's official web portal to all federal, state and local government web resources and services.